Information on these data can be found in provided Readme document
Contact Info: Zachary Fasnacht (zachary.fasnacht@ssaihq.com); Nickolay Krotkov (nickolay.a.krotkov@nasa.gov); Lok Lamsal (lok.lamsal@nasa.gov)

FillValue: -999.
ScaleFactor: 1e15
Units: molecules/cm^2

Date(yyyy-mm-dd),City,Country,LonCenter,LatCenter,BoundingCoordinates,Median,Q1,Q3,Mean,Baseline_Median,Baseline_Q1,Baseline_Q3,Baseline_Mean,NumGoodSamples,NumTotalSamples
2015-01-01,Chicago,USA,-87.6167,41.8333,[-88.1167 41.3333 -87.1167 42.3333],7.288,6.01,9.529,7.485,6.13,4.712,8.083,6.405,50.0,581.0
2015-01-02,Chicago,USA,-87.6167,41.8333,[-88.1167 41.3333 -87.1167 42.3333],7.288,6.01,9.529,7.485,6.212,5.116,8.172,6.68,50.0,581.0
2015-01-03,Chicago,USA,-87.6167,41.8333,[-88.1167 41.3333 -87.1167 42.3333],7.905,4.881,9.789,7.292,6.234,4.718,8.079,6.48,35.0,589.0
2015-01-04,Chicago,USA,-87.6167,41.8333,[-88.1167 41.3333 -87.1167 42.3333],7.905,4.881,9.789,7.292,6.381,4.703,8.436,6.546,35.0,589.0
2015-01-05,Chicago,USA,-87.6167,41.8333,[-88.1167 41.3333 -87.1167 42.3333],8.495,5.523,9.898,7.731,6.441,4.699,8.445,6.56,31.0,588.0
2015-01-06,Chicago,USA,-87.6167,41.8333,[-88.1167 41.3333 -87.1167 42.3333],8.495,5.523,9.898,7.808,6.385,4.387,8.579,6.656,29.0,598.0
2015-01-07,Chicago,USA,-87.6167,41.8333,[-88.1167 41.3333 -87.1167 42.3333],8.495,5.523,9.898,7.808,7.034,4.788,9.408,7.079,29.0,595.0
2015-01-08,Chicago,USA,-87.6167,41.8333,[-88.1167 41.3333 -87.1167 42.3333],-999.0,-999.0,-999.0,-999.0,6.633,4.586,9.273,6.879,-999.0,-999.0
2015-01-09,Chicago,USA,-87.6167,41.8333,[-88.1167 41.3333 -87.1167 42.3333],-999.0,-999.0,-999.0,-999.0,6.956,4.754,9.495,7.155,-999.0,-999.0
2015-01-10,Chicago,USA,-87.6167,41.8333,[-88.1167 41.3333 -87.1167 42.3333],-999.0,-999.0,-999.0,-999.0,6.99,4.372,9.745,7.204,-999.0,-999.0
2015-01-11,Chicago,USA,-87.6167,41.8333,[-88.1167 41.3333 -87.1167 42.3333],5.56,3.665,7.926,5.595,6.881,4.318,9.606,7.082,11.0,558.0
2015-01-12,Chicago,USA,-87.6167,41.8333,[-88.1167 41.3333 -87.1167 42.3333],7.737,4.987,15.105,11.909,8.148,5.544,13.41,10.881,25.0,553.0
2015-01-13,Chicago,USA,-87.6167,41.8333,[-88.1167 41.3333 -87.1167 42.3333],7.737,3.852,14.308,11.071,8.675,5.342,15.163,11.125,27.0,565.0
2015-01-14,Chicago,USA,-87.6167,41.8333,[-88.1167 41.3333 -87.1167 42.3333],7.737,3.852,14.308,11.071,9.825,5.416,18.193,12.032,27.0,561.0
2015-01-15,Chicago,USA,-87.6167,41.8333,[-88.1167 41.3333 -87.1167 42.3333],7.737,3.852,14.308,11.071,10.555,5.626,20.897,13.345,27.0,559.0
2015-01-16,Chicago,USA,-87.6167,41.8333,[-88.1167 41.3333 -87.1167 42.3333],7.737,3.852,14.308,11.071,10.594,5.539,20.969,13.316,27.0,556.0
2015-01-17,Chicago,USA,-87.6167,41.8333,[-88.1167 41.3333 -87.1167 42.3333],7.737,3.852,14.308,11.071,10.531,5.659,17.872,13.255,27.0,556.0
2015-01-18,Chicago,USA,-87.6167,41.8333,[-88.1167 41.3333 -87.1167 42.3333],7.737,3.852,14.308,11.071,10.914,5.87,17.654,13.581,27.0,556.0
2015-01-19,Chicago,USA,-87.6167,41.8333,[-88.1167 41.3333 -87.1167 42.3333],7.737,3.852,14.308,11.071,9.265,3.947,16.006,11.698,27.0,560.0
2015-01-20,Chicago,USA,-87.6167,41.8333,[-88.1167 41.3333 -87.1167 42.3333],7.737,4.026,11.495,10.304,8.415,3.916,17.627,11.374,35.0,558.0
2015-01-21,Chicago,USA,-87.6167,41.8333,[-88.1167 41.3333 -87.1167 42.3333],8.592,4.987,15.105,12.476,8.806,4.134,17.455,11.639,49.0,553.0
2015-01-22,Chicago,USA,-87.6167,41.8333,[-88.1167 41.3333 -87.1167 42.3333],8.592,4.987,15.105,12.476,8.757,4.017,16.989,11.758,49.0,554.0
2015-01-23,Chicago,USA,-87.6167,41.8333,[-88.1167 41.3333 -87.1167 42.3333],8.97,4.61,16.232,11.984,9.098,4.231,17.164,11.656,66.0,550.0
2015-01-24,Chicago,USA,-87.6167,41.8333,[-88.1167 41.3333 -87.1167 42.3333],8.97,4.61,16.232,11.984,8.742,4.217,16.349,11.146,66.0,589.0
2015-01-25,Chicago,USA,-87.6167,41.8333,[-88.1167 41.3333 -87.1167 42.3333],8.97,4.61,16.232,11.984,8.776,5.341,15.189,11.42,66.0,581.0
2015-01-26,Chicago,USA,-87.6167,41.8333,[-88.1167 41.3333 -87.1167 42.3333],13.119,5.628,22.119,14.376,9.049,4.952,15.11,10.977,55.0,589.0
2015-01-27,Chicago,USA,-87.6167,41.8333,[-88.1167 41.3333 -87.1167 42.3333],11.46,4.61,16.232,12.035,6.746,3.467,10.553,8.385,41.0,584.0
2015-01-28,Chicago,USA,-87.6167,41.8333,[-88.1167 41.3333 -87.1167 42.3333],11.495,5.47,16.441,12.688,6.657,3.383,10.16,8.183,39.0,581.0
2015-01-29,Chicago,USA,-87.6167,41.8333,[-88.1167 41.3333 -87.1167 42.3333],7.745,5.47,13.684,10.532,5.798,3.232,9.333,7.256,45.0,591.0
2015-01-30,Chicago,USA,-87.6167,41.8333,[-88.1167 41.3333 -87.1167 42.3333],7.609,4.701,13.499,10.186,5.817,3.2,9.611,7.215,50.0,587.0
2015-01-31,Chicago,USA,-87.6167,41.8333,[-88.1167 41.3333 -87.1167 42.3333],7.609,4.701,13.499,10.186,5.824,3.11,9.451,7.221,50.0,583.0
2015-02-01,Chicago,USA,-87.6167,41.8333,[-88.1167 41.3333 -87.1167 42.3333],7.472,4.701,13.499,10.154,5.806,3.141,9.37,7.07,51.0,578.0
2015-02-02,Chicago,USA,-87.6167,41.8333,[-88.1167 41.3333 -87.1167 42.3333],7.472,4.701,13.499,10.154,5.716,3.121,9.409,6.925,51.0,578.0
2015-02-03,Chicago,USA,-87.6167,41.8333,[-88.1167 41.3333 -87.1167 42.3333],7.745,4.61,13.684,9.845,6.239,4.012,10.307,7.677,71.0,580.0
2015-02-04,Chicago,USA,-87.6167,41.8333,[-88.1167 41.3333 -87.1167 42.3333],7.745,4.046,14.709,10.065,6.494,4.106,11.992,8.423,63.0,586.0
2015-02-05,Chicago,USA,-87.6167,41.8333,[-88.1167 41.3333 -87.1167 42.3333],5.594,3.007,9.282,7.381,6.034,3.727,11.085,7.894,59.0,583.0
2015-02-06,Chicago,USA,-87.6167,41.8333,[-88.1167 41.3333 -87.1167 42.3333],5.594,3.007,9.282,7.354,6.843,4.111,10.526,7.901,60.0,581.0
2015-02-07,Chicago,USA,-87.6167,41.8333,[-88.1167 41.3333 -87.1167 42.3333],4.701,3.007,7.745,6.495,6.63,4.103,9.973,7.627,43.0,587.0
2015-02-08,Chicago,USA,-87.6167,41.8333,[-88.1167 41.3333 -87.1167 42.3333],4.046,3.007,7.745,5.99,6.628,4.154,10.027,7.637,56.0,584.0
2015-02-09,Chicago,USA,-87.6167,41.8333,[-88.1167 41.3333 -87.1167 42.3333],4.046,3.007,7.745,5.99,6.611,4.204,9.79,7.587,56.0,585.0
2015-02-10,Chicago,USA,-87.6167,41.8333,[-88.1167 41.3333 -87.1167 42.3333],4.046,3.007,7.745,5.99,6.811,4.153,9.767,7.448,56.0,538.0
2015-02-11,Chicago,USA,-87.6167,41.8333,[-88.1167 41.3333 -87.1167 42.3333],4.046,3.007,7.745,5.99,6.84,4.228,9.762,7.482,56.0,545.0
2015-02-12,Chicago,USA,-87.6167,41.8333,[-88.1167 41.3333 -87.1167 42.3333],3.881,2.612,6.593,5.196,6.191,3.922,9.365,7.303,86.0,543.0
2015-02-13,Chicago,USA,-87.6167,41.8333,[-88.1167 41.3333 -87.1167 42.3333],3.347,2.369,5.594,4.915,5.695,3.974,8.524,7.049,86.0,540.0
2015-02-14,Chicago,USA,-87.6167,41.8333,[-88.1167 41.3333 -87.1167 42.3333],3.029,1.777,5.287,4.241,5.547,3.774,8.376,6.705,90.0,553.0
2015-02-15,Chicago,USA,-87.6167,41.8333,[-88.1167 41.3333 -87.1167 42.3333],3.089,1.894,5.287,4.222,5.583,3.829,8.968,6.816,106.0,550.0
2015-02-16,Chicago,USA,-87.6167,41.8333,[-88.1167 41.3333 -87.1167 42.3333],3.089,1.894,5.287,4.225,5.567,3.805,9.063,6.884,105.0,549.0
2015-02-17,Chicago,USA,-87.6167,41.8333,[-88.1167 41.3333 -87.1167 42.3333],3.089,1.894,5.287,4.225,5.516,3.666,9.002,6.836,105.0,545.0
2015-02-18,Chicago,USA,-87.6167,41.8333,[-88.1167 41.3333 -87.1167 42.3333],2.93,1.235,4.136,2.962,5.446,3.521,8.631,6.462,85.0,545.0
2015-02-19,Chicago,USA,-87.6167,41.8333,[-88.1167 41.3333 -87.1167 42.3333],2.312,1.446,3.548,2.701,4.824,3.299,6.962,5.614,116.0,546.0
2015-02-20,Chicago,USA,-87.6167,41.8333,[-88.1167 41.3333 -87.1167 42.3333],2.284,1.103,3.804,2.699,5.179,3.409,7.257,5.882,106.0,555.0
2015-02-21,Chicago,USA,-87.6167,41.8333,[-88.1167 41.3333 -87.1167 42.3333],2.612,1.8,4.895,3.529,4.599,3.209,6.917,5.604,124.0,553.0
2015-02-22,Chicago,USA,-87.6167,41.8333,[-88.1167 41.3333 -87.1167 42.3333],2.683,1.894,5.206,3.678,4.567,3.246,6.978,5.587,148.0,549.0
2015-02-23,Chicago,USA,-87.6167,41.8333,[-88.1167 41.3333 -87.1167 42.3333],2.612,1.632,5.206,3.626,4.537,3.139,6.86,5.615,141.0,552.0
2015-02-24,Chicago,USA,-87.6167,41.8333,[-88.1167 41.3333 -87.1167 42.3333],2.612,1.597,5.206,3.606,4.873,3.27,7.748,5.964,142.0,548.0
2015-02-25,Chicago,USA,-87.6167,41.8333,[-88.1167 41.3333 -87.1167 42.3333],2.612,1.597,5.206,3.606,4.779,3.292,7.298,5.85,142.0,588.0
2015-02-26,Chicago,USA,-87.6167,41.8333,[-88.1167 41.3333 -87.1167 42.3333],3.314,1.981,6.315,4.47,4.816,3.189,7.367,5.932,165.0,580.0
2015-02-27,Chicago,USA,-87.6167,41.8333,[-88.1167 41.3333 -87.1167 42.3333],3.069,1.57,6.755,4.613,4.933,3.269,7.543,5.899,135.0,585.0
2015-02-28,Chicago,USA,-87.6167,41.8333,[-88.1167 41.3333 -87.1167 42.3333],3.021,1.597,6.095,4.284,4.934,2.972,7.442,5.72,160.0,584.0
2015-03-01,Chicago,USA,-87.6167,41.8333,[-88.1167 41.3333 -87.1167 42.3333],3.488,2.09,6.315,4.635,4.914,2.968,7.367,5.659,161.0,579.0
2015-03-02,Chicago,USA,-87.6167,41.8333,[-88.1167 41.3333 -87.1167 42.3333],3.594,2.172,6.831,4.845,4.805,2.945,7.751,5.675,157.0,593.0
2015-03-03,Chicago,USA,-87.6167,41.8333,[-88.1167 41.3333 -87.1167 42.3333],3.594,2.117,6.899,4.951,4.763,2.856,7.296,5.568,179.0,590.0
2015-03-04,Chicago,USA,-87.6167,41.8333,[-88.1167 41.3333 -87.1167 42.3333],3.594,2.117,6.899,4.951,4.694,2.855,7.204,5.521,179.0,590.0
2015-03-05,Chicago,USA,-87.6167,41.8333,[-88.1167 41.3333 -87.1167 42.3333],4.392,2.312,8.505,5.523,5.223,2.968,8.381,5.946,212.0,586.0
2015-03-06,Chicago,USA,-87.6167,41.8333,[-88.1167 41.3333 -87.1167 42.3333],5.22,3.021,9.227,6.092,5.521,3.223,8.707,6.176,181.0,587.0
2015-03-07,Chicago,USA,-87.6167,41.8333,[-88.1167 41.3333 -87.1167 42.3333],5.121,3.021,8.505,5.927,5.418,3.356,7.942,6.01,219.0,587.0
2015-03-08,Chicago,USA,-87.6167,41.8333,[-88.1167 41.3333 -87.1167 42.3333],4.912,2.969,8.549,5.838,5.429,3.433,8.418,6.131,200.0,595.0
2015-03-09,Chicago,USA,-87.6167,41.8333,[-88.1167 41.3333 -87.1167 42.3333],4.963,2.969,8.495,5.849,5.597,3.432,8.425,6.173,178.0,591.0
2015-03-10,Chicago,USA,-87.6167,41.8333,[-88.1167 41.3333 -87.1167 42.3333],5.121,3.021,8.602,5.954,5.543,3.181,8.165,6.031,200.0,590.0
2015-03-11,Chicago,USA,-87.6167,41.8333,[-88.1167 41.3333 -87.1167 42.3333],5.244,3.066,8.602,5.99,5.234,2.997,8.193,5.797,208.0,599.0
2015-03-12,Chicago,USA,-87.6167,41.8333,[-88.1167 41.3333 -87.1167 42.3333],5.244,3.066,8.602,5.988,5.212,3.1,8.344,5.872,209.0,598.0
2015-03-13,Chicago,USA,-87.6167,41.8333,[-88.1167 41.3333 -87.1167 42.3333],4.834,3.001,7.745,5.523,5.145,3.102,7.825,5.769,186.0,602.0
2015-03-14,Chicago,USA,-87.6167,41.8333,[-88.1167 41.3333 -87.1167 42.3333],4.834,3.001,7.745,5.523,5.145,3.116,7.81,5.743,186.0,558.0
2015-03-15,Chicago,USA,-87.6167,41.8333,[-88.1167 41.3333 -87.1167 42.3333],5.576,3.594,8.316,6.203,5.524,3.443,8.581,6.385,155.0,561.0
2015-03-16,Chicago,USA,-87.6167,41.8333,[-88.1167 41.3333 -87.1167 42.3333],5.648,3.869,8.602,6.308,5.776,3.924,8.98,6.764,145.0,560.0
2015-03-17,Chicago,USA,-87.6167,41.8333,[-88.1167 41.3333 -87.1167 42.3333],6.004,4.122,8.602,6.555,5.81,3.925,8.684,6.649,141.0,555.0
2015-03-18,Chicago,USA,-87.6167,41.8333,[-88.1167 41.3333 -87.1167 42.3333],6.004,4.477,8.602,6.564,5.553,3.615,8.576,6.435,119.0,563.0
2015-03-19,Chicago,USA,-87.6167,41.8333,[-88.1167 41.3333 -87.1167 42.3333],6.367,4.477,8.67,6.828,5.721,3.688,8.97,6.733,131.0,558.0
2015-03-20,Chicago,USA,-87.6167,41.8333,[-88.1167 41.3333 -87.1167 42.3333],5.421,3.737,7.998,6.096,5.57,3.513,8.707,6.557,98.0,555.0
2015-03-21,Chicago,USA,-87.6167,41.8333,[-88.1167 41.3333 -87.1167 42.3333],5.244,3.028,6.781,5.623,5.526,3.391,8.427,6.42,131.0,549.0
2015-03-22,Chicago,USA,-87.6167,41.8333,[-88.1167 41.3333 -87.1167 42.3333],5.463,3.028,6.754,5.899,5.513,3.403,8.436,6.447,93.0,547.0
2015-03-23,Chicago,USA,-87.6167,41.8333,[-88.1167 41.3333 -87.1167 42.3333],5.859,3.869,7.134,6.044,5.448,3.459,8.139,6.316,111.0,547.0
2015-03-24,Chicago,USA,-87.6167,41.8333,[-88.1167 41.3333 -87.1167 42.3333],5.861,3.993,7.319,6.07,5.316,3.472,8.162,6.313,109.0,554.0
2015-03-25,Chicago,USA,-87.6167,41.8333,[-88.1167 41.3333 -87.1167 42.3333],5.488,4.107,6.849,5.895,5.398,3.493,8.641,6.436,101.0,554.0
2015-03-26,Chicago,USA,-87.6167,41.8333,[-88.1167 41.3333 -87.1167 42.3333],5.488,3.884,6.734,5.868,5.372,3.404,8.639,6.419,92.0,549.0
2015-03-27,Chicago,USA,-87.6167,41.8333,[-88.1167 41.3333 -87.1167 42.3333],5.488,3.884,6.734,5.872,5.695,3.335,9.188,6.648,91.0,551.0
2015-03-28,Chicago,USA,-87.6167,41.8333,[-88.1167 41.3333 -87.1167 42.3333],5.437,3.616,6.706,5.583,5.422,3.179,8.489,6.412,124.0,552.0
2015-03-29,Chicago,USA,-87.6167,41.8333,[-88.1167 41.3333 -87.1167 42.3333],5.437,3.616,6.706,5.583,5.482,3.178,8.962,6.492,124.0,591.0
2015-03-30,Chicago,USA,-87.6167,41.8333,[-88.1167 41.3333 -87.1167 42.3333],5.437,3.655,6.713,5.814,5.153,3.075,8.034,6.019,128.0,587.0
2015-03-31,Chicago,USA,-87.6167,41.8333,[-88.1167 41.3333 -87.1167 42.3333],5.437,3.655,6.713,5.814,4.788,2.965,7.347,5.616,128.0,590.0
2015-04-01,Chicago,USA,-87.6167,41.8333,[-88.1167 41.3333 -87.1167 42.3333],5.388,3.616,6.706,5.637,5.005,3.173,7.798,5.749,120.0,591.0
2015-04-02,Chicago,USA,-87.6167,41.8333,[-88.1167 41.3333 -87.1167 42.3333],5.388,3.616,6.706,5.637,5.204,3.823,7.731,6.144,120.0,589.0
2015-04-03,Chicago,USA,-87.6167,41.8333,[-88.1167 41.3333 -87.1167 42.3333],4.652,3.616,6.414,5.082,5.119,3.862,7.191,5.818,119.0,600.0
2015-04-04,Chicago,USA,-87.6167,41.8333,[-88.1167 41.3333 -87.1167 42.3333],4.62,3.38,6.414,5.002,4.994,3.605,7.193,5.594,143.0,597.0
2015-04-05,Chicago,USA,-87.6167,41.8333,[-88.1167 41.3333 -87.1167 42.3333],4.511,3.627,5.886,5.087,4.853,3.549,6.981,5.642,110.0,596.0
2015-04-06,Chicago,USA,-87.6167,41.8333,[-88.1167 41.3333 -87.1167 42.3333],5.388,3.761,6.929,5.516,5.171,3.615,7.608,5.874,142.0,592.0
2015-04-07,Chicago,USA,-87.6167,41.8333,[-88.1167 41.3333 -87.1167 42.3333],5.071,3.627,6.896,5.353,5.042,3.546,7.607,5.855,124.0,591.0
2015-04-08,Chicago,USA,-87.6167,41.8333,[-88.1167 41.3333 -87.1167 42.3333],5.288,3.761,6.957,5.516,4.889,3.472,7.293,5.766,161.0,593.0
2015-04-09,Chicago,USA,-87.6167,41.8333,[-88.1167 41.3333 -87.1167 42.3333],5.151,3.627,7.0,5.619,4.856,3.4,7.189,5.778,141.0,598.0
2015-04-10,Chicago,USA,-87.6167,41.8333,[-88.1167 41.3333 -87.1167 42.3333],5.505,3.761,7.774,6.175,4.969,3.429,7.324,5.889,160.0,600.0
2015-04-11,Chicago,USA,-87.6167,41.8333,[-88.1167 41.3333 -87.1167 42.3333],5.312,3.627,7.684,5.996,4.794,3.387,7.186,5.702,179.0,595.0
2015-04-12,Chicago,USA,-87.6167,41.8333,[-88.1167 41.3333 -87.1167 42.3333],5.597,3.761,7.792,6.215,4.935,3.314,7.124,5.746,147.0,595.0
2015-04-13,Chicago,USA,-87.6167,41.8333,[-88.1167 41.3333 -87.1167 42.3333],5.597,3.761,7.792,6.215,4.719,3.172,6.8,5.52,147.0,597.0
2015-04-14,Chicago,USA,-87.6167,41.8333,[-88.1167 41.3333 -87.1167 42.3333],5.505,3.761,7.76,6.052,4.682,3.201,6.628,5.397,143.0,598.0
2015-04-15,Chicago,USA,-87.6167,41.8333,[-88.1167 41.3333 -87.1167 42.3333],5.505,3.761,7.76,6.052,4.737,3.229,7.006,5.422,143.0,555.0
2015-04-16,Chicago,USA,-87.6167,41.8333,[-88.1167 41.3333 -87.1167 42.3333],5.505,3.761,7.76,6.052,4.596,2.983,6.63,5.174,143.0,555.0
2015-04-17,Chicago,USA,-87.6167,41.8333,[-88.1167 41.3333 -87.1167 42.3333],5.505,3.761,7.76,6.047,4.636,2.999,6.711,5.195,146.0,554.0
2015-04-18,Chicago,USA,-87.6167,41.8333,[-88.1167 41.3333 -87.1167 42.3333],6.531,4.321,8.306,6.425,4.723,3.125,6.656,5.093,135.0,550.0
2015-04-19,Chicago,USA,-87.6167,41.8333,[-88.1167 41.3333 -87.1167 42.3333],5.505,3.35,7.792,5.967,4.539,3.036,6.611,5.235,123.0,563.0
2015-04-20,Chicago,USA,-87.6167,41.8333,[-88.1167 41.3333 -87.1167 42.3333],5.407,3.196,7.684,5.752,4.512,3.005,6.569,5.202,150.0,560.0
2015-04-21,Chicago,USA,-87.6167,41.8333,[-88.1167 41.3333 -87.1167 42.3333],4.476,2.887,7.76,5.431,4.054,2.778,6.179,4.884,118.0,557.0
2015-04-22,Chicago,USA,-87.6167,41.8333,[-88.1167 41.3333 -87.1167 42.3333],4.746,2.961,7.774,5.623,4.1,2.795,6.199,4.908,131.0,555.0
2015-04-23,Chicago,USA,-87.6167,41.8333,[-88.1167 41.3333 -87.1167 42.3333],3.911,2.565,7.76,5.426,4.105,2.881,6.172,4.86,94.0,554.0
2015-04-24,Chicago,USA,-87.6167,41.8333,[-88.1167 41.3333 -87.1167 42.3333],4.204,2.629,7.08,5.13,4.147,2.812,6.051,4.778,132.0,552.0
2015-04-25,Chicago,USA,-87.6167,41.8333,[-88.1167 41.3333 -87.1167 42.3333],3.483,2.545,5.407,4.067,3.944,2.823,5.614,4.528,115.0,556.0
2015-04-26,Chicago,USA,-87.6167,41.8333,[-88.1167 41.3333 -87.1167 42.3333],3.629,2.555,5.65,4.188,3.774,2.729,5.533,4.42,97.0,566.0
2015-04-27,Chicago,USA,-87.6167,41.8333,[-88.1167 41.3333 -87.1167 42.3333],3.629,2.545,5.65,4.122,3.836,2.768,5.431,4.387,104.0,564.0
2015-04-28,Chicago,USA,-87.6167,41.8333,[-88.1167 41.3333 -87.1167 42.3333],3.629,2.545,5.65,4.122,3.973,2.913,5.419,4.509,104.0,564.0
2015-04-29,Chicago,USA,-87.6167,41.8333,[-88.1167 41.3333 -87.1167 42.3333],3.821,2.565,6.156,4.679,3.726,2.794,5.414,4.453,125.0,554.0
2015-04-30,Chicago,USA,-87.6167,41.8333,[-88.1167 41.3333 -87.1167 42.3333],3.821,2.565,6.156,4.679,3.757,2.859,5.365,4.47,125.0,593.0
2015-05-01,Chicago,USA,-87.6167,41.8333,[-88.1167 41.3333 -87.1167 42.3333],3.821,2.565,6.404,4.698,3.825,2.815,5.426,4.446,130.0,586.0
2015-05-02,Chicago,USA,-87.6167,41.8333,[-88.1167 41.3333 -87.1167 42.3333],3.815,2.565,6.404,4.693,3.803,2.797,5.392,4.425,127.0,590.0
2015-05-03,Chicago,USA,-87.6167,41.8333,[-88.1167 41.3333 -87.1167 42.3333],3.815,2.565,6.404,4.693,3.8,2.714,5.227,4.292,127.0,588.0
2015-05-04,Chicago,USA,-87.6167,41.8333,[-88.1167 41.3333 -87.1167 42.3333],4.579,2.961,7.08,5.275,3.69,2.728,4.95,3.985,115.0,584.0
2015-05-05,Chicago,USA,-87.6167,41.8333,[-88.1167 41.3333 -87.1167 42.3333],5.103,3.064,7.127,5.593,3.735,2.732,4.939,4.0,88.0,598.0
2015-05-06,Chicago,USA,-87.6167,41.8333,[-88.1167 41.3333 -87.1167 42.3333],4.385,2.764,7.074,5.092,3.675,2.676,5.052,4.006,113.0,595.0
2015-05-07,Chicago,USA,-87.6167,41.8333,[-88.1167 41.3333 -87.1167 42.3333],4.204,2.55,6.404,4.7,3.812,2.686,5.061,4.0,104.0,591.0
2015-05-08,Chicago,USA,-87.6167,41.8333,[-88.1167 41.3333 -87.1167 42.3333],3.998,2.555,6.404,4.67,3.579,2.655,5.007,3.903,109.0,588.0
2015-05-09,Chicago,USA,-87.6167,41.8333,[-88.1167 41.3333 -87.1167 42.3333],3.773,2.311,6.504,4.832,3.465,2.539,4.817,3.78,71.0,588.0
2015-05-10,Chicago,USA,-87.6167,41.8333,[-88.1167 41.3333 -87.1167 42.3333],3.604,1.895,5.828,4.499,3.485,2.456,4.767,3.734,75.0,587.0
2015-05-11,Chicago,USA,-87.6167,41.8333,[-88.1167 41.3333 -87.1167 42.3333],3.747,1.831,5.828,4.53,3.358,2.392,4.651,3.666,75.0,585.0
2015-05-12,Chicago,USA,-87.6167,41.8333,[-88.1167 41.3333 -87.1167 42.3333],3.747,1.895,6.137,4.702,3.469,2.461,4.623,3.694,67.0,611.0
2015-05-13,Chicago,USA,-87.6167,41.8333,[-88.1167 41.3333 -87.1167 42.3333],3.747,1.895,6.137,4.702,3.396,2.363,4.733,3.776,67.0,608.0
2015-05-14,Chicago,USA,-87.6167,41.8333,[-88.1167 41.3333 -87.1167 42.3333],3.472,2.07,4.475,3.654,3.408,2.341,4.938,3.777,82.0,617.0
2015-05-15,Chicago,USA,-87.6167,41.8333,[-88.1167 41.3333 -87.1167 42.3333],3.303,1.831,4.628,3.441,3.11,2.096,4.413,3.4,104.0,608.0
2015-05-16,Chicago,USA,-87.6167,41.8333,[-88.1167 41.3333 -87.1167 42.3333],3.113,1.81,4.505,3.296,3.207,2.196,4.475,3.471,99.0,612.0
2015-05-17,Chicago,USA,-87.6167,41.8333,[-88.1167 41.3333 -87.1167 42.3333],3.113,1.81,4.505,3.296,3.195,2.189,4.427,3.441,99.0,569.0
2015-05-18,Chicago,USA,-87.6167,41.8333,[-88.1167 41.3333 -87.1167 42.3333],3.113,1.81,4.505,3.296,3.149,2.049,4.49,3.46,99.0,575.0
2015-05-19,Chicago,USA,-87.6167,41.8333,[-88.1167 41.3333 -87.1167 42.3333],3.321,1.895,5.041,3.515,3.167,2.068,4.582,3.493,104.0,572.0
2015-05-20,Chicago,USA,-87.6167,41.8333,[-88.1167 41.3333 -87.1167 42.3333],3.472,1.939,4.978,3.558,3.284,2.166,4.632,3.552,117.0,566.0
2015-05-21,Chicago,USA,-87.6167,41.8333,[-88.1167 41.3333 -87.1167 42.3333],4.35,3.113,5.364,4.242,3.375,2.332,4.693,3.64,131.0,580.0
2015-05-22,Chicago,USA,-87.6167,41.8333,[-88.1167 41.3333 -87.1167 42.3333],4.327,3.051,5.364,4.222,3.263,2.257,4.541,3.51,133.0,578.0
2015-05-23,Chicago,USA,-87.6167,41.8333,[-88.1167 41.3333 -87.1167 42.3333],4.425,3.016,5.364,4.231,3.322,2.21,4.623,3.514,128.0,574.0
2015-05-24,Chicago,USA,-87.6167,41.8333,[-88.1167 41.3333 -87.1167 42.3333],4.327,2.953,5.364,4.195,3.383,2.351,4.636,3.565,130.0,572.0
2015-05-25,Chicago,USA,-87.6167,41.8333,[-88.1167 41.3333 -87.1167 42.3333],4.461,3.253,5.523,4.335,3.333,2.295,4.482,3.555,124.0,572.0
2015-05-26,Chicago,USA,-87.6167,41.8333,[-88.1167 41.3333 -87.1167 42.3333],4.716,3.226,5.924,4.6,3.564,2.38,4.787,3.732,162.0,571.0
2015-05-27,Chicago,USA,-87.6167,41.8333,[-88.1167 41.3333 -87.1167 42.3333],4.716,3.253,5.924,4.6,3.497,2.422,4.725,3.705,164.0,548.0
2015-05-28,Chicago,USA,-87.6167,41.8333,[-88.1167 41.3333 -87.1167 42.3333],4.628,3.265,5.924,4.575,3.434,2.406,4.61,3.624,173.0,556.0
2015-05-29,Chicago,USA,-87.6167,41.8333,[-88.1167 41.3333 -87.1167 42.3333],4.716,3.321,5.924,4.586,3.394,2.377,4.5,3.526,145.0,554.0
2015-05-30,Chicago,USA,-87.6167,41.8333,[-88.1167 41.3333 -87.1167 42.3333],4.327,2.975,5.523,4.397,3.528,2.418,4.549,3.63,159.0,563.0
2015-05-31,Chicago,USA,-87.6167,41.8333,[-88.1167 41.3333 -87.1167 42.3333],4.307,2.975,5.523,4.358,3.534,2.416,4.501,3.539,162.0,556.0
2015-06-01,Chicago,USA,-87.6167,41.8333,[-88.1167 41.3333 -87.1167 42.3333],4.307,2.975,5.523,4.358,3.541,2.501,4.551,3.553,162.0,596.0
2015-06-02,Chicago,USA,-87.6167,41.8333,[-88.1167 41.3333 -87.1167 42.3333],3.958,2.905,5.234,4.168,3.546,2.454,4.486,3.562,191.0,588.0
2015-06-03,Chicago,USA,-87.6167,41.8333,[-88.1167 41.3333 -87.1167 42.3333],3.879,2.905,5.011,4.116,3.477,2.43,4.401,3.522,186.0,593.0
2015-06-04,Chicago,USA,-87.6167,41.8333,[-88.1167 41.3333 -87.1167 42.3333],3.879,2.905,5.011,4.116,3.425,2.36,4.297,3.493,173.0,590.0
2015-06-05,Chicago,USA,-87.6167,41.8333,[-88.1167 41.3333 -87.1167 42.3333],3.566,2.572,4.803,3.871,3.334,2.257,4.264,3.42,134.0,586.0
2015-06-06,Chicago,USA,-87.6167,41.8333,[-88.1167 41.3333 -87.1167 42.3333],3.012,1.884,4.307,3.423,3.22,2.182,4.156,3.348,157.0,596.0
2015-06-07,Chicago,USA,-87.6167,41.8333,[-88.1167 41.3333 -87.1167 42.3333],3.012,1.884,4.307,3.39,3.112,2.062,4.101,3.283,164.0,592.0
2015-06-08,Chicago,USA,-87.6167,41.8333,[-88.1167 41.3333 -87.1167 42.3333],3.06,1.884,4.307,3.447,3.057,2.043,4.109,3.3,168.0,590.0
2015-06-09,Chicago,USA,-87.6167,41.8333,[-88.1167 41.3333 -87.1167 42.3333],2.975,2.128,4.26,3.344,3.042,2.133,4.102,3.267,201.0,587.0
2015-06-10,Chicago,USA,-87.6167,41.8333,[-88.1167 41.3333 -87.1167 42.3333],2.905,1.884,3.879,2.892,2.98,2.055,3.868,3.046,162.0,587.0
2015-06-11,Chicago,USA,-87.6167,41.8333,[-88.1167 41.3333 -87.1167 42.3333],2.905,1.884,3.879,2.888,2.907,1.988,3.894,3.011,164.0,588.0
2015-06-12,Chicago,USA,-87.6167,41.8333,[-88.1167 41.3333 -87.1167 42.3333],2.695,1.733,3.519,2.742,2.946,2.038,3.905,3.019,157.0,584.0
2015-06-13,Chicago,USA,-87.6167,41.8333,[-88.1167 41.3333 -87.1167 42.3333],2.695,1.8,3.519,2.712,2.941,2.06,3.913,3.018,154.0,612.0
2015-06-14,Chicago,USA,-87.6167,41.8333,[-88.1167 41.3333 -87.1167 42.3333],2.883,1.884,3.635,2.809,2.88,1.943,3.846,2.956,147.0,609.0
2015-06-15,Chicago,USA,-87.6167,41.8333,[-88.1167 41.3333 -87.1167 42.3333],2.905,1.884,3.699,2.824,2.893,1.977,3.869,2.984,145.0,615.0
2015-06-16,Chicago,USA,-87.6167,41.8333,[-88.1167 41.3333 -87.1167 42.3333],2.883,1.787,3.825,2.815,2.887,1.943,3.825,2.944,167.0,612.0
2015-06-17,Chicago,USA,-87.6167,41.8333,[-88.1167 41.3333 -87.1167 42.3333],2.453,1.449,3.498,2.587,2.751,1.854,3.593,2.841,138.0,616.0
2015-06-18,Chicago,USA,-87.6167,41.8333,[-88.1167 41.3333 -87.1167 42.3333],2.453,1.449,3.498,2.587,2.781,1.929,3.624,2.874,138.0,572.0
2015-06-19,Chicago,USA,-87.6167,41.8333,[-88.1167 41.3333 -87.1167 42.3333],2.453,1.449,3.498,2.587,2.66,1.8,3.501,2.745,138.0,577.0
2015-06-20,Chicago,USA,-87.6167,41.8333,[-88.1167 41.3333 -87.1167 42.3333],2.537,1.646,3.513,2.673,2.66,1.835,3.549,2.793,170.0,575.0
2015-06-21,Chicago,USA,-87.6167,41.8333,[-88.1167 41.3333 -87.1167 42.3333],2.941,2.16,3.814,2.999,2.822,1.924,3.79,2.911,162.0,572.0
2015-06-22,Chicago,USA,-87.6167,41.8333,[-88.1167 41.3333 -87.1167 42.3333],2.944,2.16,4.056,3.052,2.762,1.921,3.756,2.856,163.0,584.0